Погода в Саламанке

Мексика     20°34′05″N   101°11′36″W
темп.,
°C
ветер,
м/с
пор.,
м/с
влажн.,
%
обл.,
%
осадки,
мм/ч
давл.,
гПа
погр.,
м
25 февраля, чт
чт2500:00+10юв22380 0.0 101922
03:00+7юв11470 0.0 101822
06:00+6ююв11530 0.0 102022
09:00+15в123587 0.0 1020214
12:00+29в231285 0.0 10171252
15:00+35с12680 0.0 10112546
18:00+28сз22890 0.0 101189
21:00+15св222748 0.0 101631
26 февраля, пт
пт2600:00+10ююв114434 0.0 101822
03:00+8ююв016784 0.0 101722
06:00+7юв017792 0.0 101722
09:00+17юв014228 0.0 1017252
12:00+29зсз231963 0.0 10141146
15:00+33сз211071 0.0 10082564
18:00+29с121136 0.0 1007459
21:00+17юз22240 0.0 101223
27 февраля, сб
сб2700:00+12юв11410 0.0 101523
03:00+10всв015841 0.0 101422
06:00+8вюв117162 0.0 101422
09:00+18юв114153 0.0 1015258
12:00+31з221463 0.0 10121273
15:00+34зсз2310100 0.0 10073037
18:00+30зсз121178 0.0 1007365
21:00+17юз23330 0.0 101329
28 февраля, вс
вс2800:00+12ю00510 0.0 101523
03:00+10зюз11620 0.0 101523
06:00+8ю00780 0.0 101622
09:00+18ю01410 0.0 1016268
12:00+29зсз23164 0.0 10121290
15:00+34з231139 0.0 10083023
18:00+30сз331459 0.0 10081855
21:00+17юз223474 0.0 101323
1 марта, пн
пн100:00+13в114848 0.0 101423
03:00+10юз01600 0.0 101422
06:00+8ююв017233 0.0 101522
09:00+18вюв0138100 0.0 1016257
12:00+32ссз111492 0.0 10121293
15:00+37ссз12980 0.0 10072838
18:00+30ссз221160 0.0 10071570
21:00+18ююз222524 0.0 101323